Fairbanks Ft. Wainwright, AK

11:49 PM AKDT on June 22, 2017 (GMT -0800)
Ladd Army Air Field

Weather History for PAFB - May, 2013

Change the Weather History Date:

Saturday, May 25, 2013

  Actual Average Record
Temperature  
Mean Temperature 62 °F -  
Max Temperature 75 °F 61 °F 77 °F (2006)
Min Temperature 48 °F 43 °F 33 °F (2000)
Degree Days  
Heating Degree Days 4    
Growing Degree Days 12 (Base 50)    
Moisture  
Dew Point 28 °F    
Average Humidity 29    
Maximum Humidity 50    
Minimum Humidity 14    
Precipitation  
Precipitation 0.00 in - - ()
Sea Level Pressure  
Sea Level Pressure 29.90 in    
Wind  
Wind Speed 6 mph (ESE)    
Max Wind Speed 21 mph    
Max Gust Speed -    
Visibility 10 miles    
Events      
Averages and records for this station are not official NWS values.
T = Trace of Precipitation, MM = Missing Value Source: NWS Daily Summary

Daily Weather History Graph

Daily Weather History Graph

Search for Another Location

Airport or City:

Trip Planner

Search our weather history database for the weather conditions in past years. The results will help you decide how hot, cold, wet, or windy it might be!

Date:

Astronomy

May. 25, 2013 Rise Set
Actual Time 3:52 AM AKDT 11:45 PM AKDT
Civil Twilight 2:19 AM AKDT 1:15 AM AKDT
Nautical Twilight Sun does not set Sun does not set
Astronomical Twilight Sun does not set Sun does not set
Moon No Moon Rise 4:45 AM AKDT (5/25)
Length of Visible Light 22h 55m
Length of Day
19h 52m
Full, 99% of the Moon is Illuminated
May 25
Full
May 31
Last Quarter
Jun 8
New
Jun 16
First Quarter
Jun 23
Full

Hourly Weather History & Observations

Time (AKDT) Temp. Dew Point Humidity Pressure Visibility Wind Dir Wind Speed Gust Speed Precip Events Conditions
12:56 AM 55.0 °F 30.9 °F 40% 29.97 in 10.0 mi ENE 9.2 mph - N/A   Clear
1:56 AM 53.1 °F 30.0 °F 41% 29.97 in 10.0 mi East 8.1 mph - N/A   Clear
2:56 AM 51.1 °F 30.0 °F 44% 29.98 in 10.0 mi East 6.9 mph - N/A   Clear
3:56 AM 48.0 °F 30.0 °F 50% 29.98 in 10.0 mi ENE 4.6 mph - N/A   Clear
4:56 AM 48.0 °F 30.0 °F 50% 29.99 in 10.0 mi ENE 5.8 mph - N/A   Clear
5:56 AM 48.0 °F 30.0 °F 50% 29.98 in 10.0 mi ENE 4.6 mph - N/A   Clear
6:56 AM 51.1 °F 30.9 °F 46% 29.98 in 10.0 mi Calm Calm - N/A   Clear
7:56 AM 55.0 °F 30.9 °F 40% 29.97 in 10.0 mi Calm Calm - N/A   Clear
8:56 AM 59.0 °F 30.9 °F 35% 29.96 in 10.0 mi East 3.5 mph - N/A   Clear
9:56 AM 63.0 °F 30.9 °F 30% 29.94 in 10.0 mi Calm Calm - N/A   Clear
10:56 AM 66.0 °F 28.9 °F 25% 29.93 in 10.0 mi SSW 3.5 mph - N/A   Clear
11:56 AM 68.0 °F 28.0 °F 22% 29.91 in 10.0 mi Calm Calm - N/A   Clear
12:56 PM 71.1 °F 28.0 °F 20% 29.90 in 10.0 mi Variable 3.5 mph - N/A   Clear
1:56 PM 73.0 °F 28.0 °F 19% 29.88 in 10.0 mi SE 8.1 mph - N/A   Clear
2:56 PM 73.0 °F 24.1 °F 16% 29.87 in 10.0 mi SSE 8.1 mph - N/A   Clear
3:56 PM 75.0 °F 24.1 °F 15% 29.86 in 10.0 mi Calm Calm - N/A   Clear
4:56 PM 75.0 °F 21.9 °F 14% 29.84 in 10.0 mi South 5.8 mph - N/A   Clear
5:56 PM 75.0 °F 23.0 °F 14% 29.82 in 10.0 mi NW 8.1 mph - N/A   Clear
6:56 PM 75.0 °F 21.9 °F 14% 29.81 in 10.0 mi NW 3.5 mph - N/A   Clear
7:56 PM 73.9 °F 21.9 °F 14% 29.80 in 10.0 mi Calm Calm - N/A   Scattered Clouds
8:56 PM 71.1 °F 26.1 °F 19% 29.80 in 10.0 mi West 20.7 mph - N/A   Mostly Cloudy
9:56 PM 68.0 °F 27.0 °F 21% 29.81 in 10.0 mi West 18.4 mph - N/A   Clear
10:56 PM 64.0 °F 28.9 °F 27% 29.83 in 10.0 mi WSW 10.4 mph - N/A   Clear
11:56 PM 62.1 °F 30.0 °F 30% 29.84 in 10.0 mi WNW 3.5 mph - N/A   Clear